Plum, TX

8:44 PM CST on February 27, 2017 (GMT -0600)
La Grange

Weather History for K3T5 - June, 2013

Change the Weather History Date:

Saturday, June 8, 2013

  Actual Average (KAUS) Record (KAUS)
Temperature  
Mean Temperature 80 °F -  
Max Temperature 94 °F 89 °F 99 °F (1956)
Min Temperature 65 °F 68 °F 58 °F (2013)
Cooling Degree Days 14    
Growing Degree Days 30 (Base 50)    
Moisture  
Dew Point 69 °F    
Average Humidity 71    
Maximum Humidity 89    
Minimum Humidity 45    
Precipitation  
Precipitation 0.00 in - - ()
Sea Level Pressure  
Sea Level Pressure 29.87 in    
Wind  
Wind Speed 3 mph (SSE)    
Max Wind Speed 16 mph    
Max Gust Speed 22 mph    
Visibility 8 miles    
Events Fog , Rain    
Averages and records for this station are not official NWS values.
T = Trace of Precipitation, MM = Missing Value Source: NWS Daily Summary

Daily Weather History Graph

Daily Weather History Graph

Search for Another Location

Airport or City:

Trip Planner

Search our weather history database for the weather conditions in past years. The results will help you decide how hot, cold, wet, or windy it might be!

Date:

Astronomy

Jun. 08, 2013 Rise Set
Actual Time 6:26 AM CDT 8:27 PM CDT
Civil Twilight 5:59 AM CDT 8:54 PM CDT
Nautical Twilight 5:26 AM CDT 9:27 PM CDT
Astronomical Twilight 4:50 AM CDT 10:03 PM CDT
Moon 6:31 AM CDT (6/8) 8:35 PM CDT (6/8)
Length of Visible Light 14h 55m
Length of Day
14h 01m
New Moon, 0% of the Moon is Illuminated
Jun 8
New Moon
Jun 16
First Quarter
Jun 23
Full
Jun 29
Last Quarter
Jul 8
New

Hourly Weather History & Observations

Time (CDT) Temp. Heat Index Dew Point Humidity Pressure Visibility Wind Dir Wind Speed Gust Speed Precip Events Conditions
12:15 AM 70.7 °F - 63.0 °F 76% 29.90 in 0.2 mi Calm Calm - N/A   Haze
12:35 AM 70.3 °F - 63.7 °F 79% 29.90 in 2.0 mi North 3.5 mph - N/A   Haze
12:55 AM 71.8 °F - 63.5 °F 75% 29.90 in 0.8 mi NNW 3.5 mph - N/A   Light Drizzle
1:15 AM 71.8 °F - 63.3 °F 75% 29.90 in 0.2 mi Calm Calm - N/A Rain Rain
1:35 AM 72.1 °F - 63.3 °F 74% 29.89 in 10.0 mi Calm Calm - N/A   Clear
1:55 AM 70.3 °F - 63.5 °F 79% 29.89 in 10.0 mi Calm Calm - N/A   Clear
2:15 AM 69.8 °F - 63.3 °F 80% 29.89 in 0.8 mi Calm Calm - N/A   Haze
2:35 AM 68.9 °F - 63.1 °F 82% 29.89 in 1.8 mi Calm Calm - N/A   Haze
2:55 AM 68.0 °F - 63.3 °F 85% 29.90 in 7.0 mi Calm Calm - N/A   Clear
3:15 AM 69.1 °F - 63.7 °F 83% 29.90 in 1.5 mi Calm Calm - N/A   Haze
3:35 AM 69.6 °F - 64.0 °F 82% 29.90 in 0.5 mi Calm Calm - N/A   Haze
3:55 AM 68.7 °F - 63.9 °F 84% 29.90 in 0.5 mi Calm Calm - N/A   Haze
4:15 AM 67.8 °F - 63.5 °F 86% 29.89 in 0.2 mi Calm Calm - N/A Fog Fog
4:35 AM 67.3 °F - 63.1 °F 87% 29.89 in 0.2 mi Calm Calm - N/A Fog Fog
4:55 AM 66.7 °F - 62.8 °F 87% 29.89 in 0.2 mi Calm Calm - N/A Fog Fog
5:15 AM 66.2 °F - 62.8 °F 89% 29.89 in 1.2 mi Calm Calm - N/A   Mist
5:35 AM 66.0 °F - 62.6 °F 89% 29.89 in 1.2 mi Calm Calm - N/A   Mist
5:55 AM 65.8 °F - 62.4 °F 89% 29.89 in 0.2 mi Calm Calm - N/A Fog Fog
6:15 AM 65.8 °F - 62.4 °F 89% 29.90 in 0.5 mi Calm Calm - N/A Fog Fog
6:35 AM 66.2 °F - 62.6 °F 88% 29.90 in 0.2 mi Calm Calm - N/A Fog Fog
6:55 AM 66.6 °F - 63.0 °F 88% 29.91 in 0.2 mi Calm Calm - N/A Fog Fog
7:15 AM 67.8 °F - 63.9 °F 87% 29.90 in 4.0 mi Calm Calm - N/A   Clear
7:35 AM 70.0 °F - 64.6 °F 83% 29.90 in 10.0 mi Calm Calm - N/A   Clear
7:55 AM 72.0 °F - 64.8 °F 78% 29.91 in 10.0 mi Calm Calm - N/A   Clear
8:15 AM 74.3 °F - 65.7 °F 74% 29.91 in 10.0 mi Calm Calm - N/A   Scattered Clouds
8:35 AM 76.5 °F - 66.4 °F 71% 29.91 in 10.0 mi East 5.8 mph - N/A   Clear
8:55 AM 79.2 °F - 67.6 °F 68% 29.92 in 10.0 mi East 5.8 mph - N/A   Clear
9:15 AM 80.8 °F 84.2 °F 70.3 °F 70% 29.92 in 10.0 mi ESE 5.8 mph - N/A   Clear
9:35 AM 81.7 °F 86.0 °F 71.6 °F 71% 29.92 in 10.0 mi ESE 5.8 mph - N/A   Clear
9:55 AM 82.0 °F 86.7 °F 72.0 °F 71% 29.92 in 10.0 mi SE 5.8 mph - N/A   Clear
10:15 AM 83.5 °F 89.1 °F 72.5 °F 69% 29.92 in 10.0 mi ESE 9.2 mph - N/A   Clear
10:35 AM 84.0 °F 90.2 °F 73.0 °F 69% 29.92 in 10.0 mi SSE 5.8 mph - N/A   Scattered Clouds
10:55 AM 84.4 °F 90.6 °F 72.9 °F 68% 29.91 in 10.0 mi SSE 5.8 mph - N/A   Scattered Clouds
11:15 AM 85.8 °F 91.8 °F 72.1 °F 63% 29.91 in 10.0 mi SE 5.8 mph - N/A   Scattered Clouds
11:35 AM 86.9 °F 93.3 °F 72.0 °F 61% 29.91 in 10.0 mi South 6.9 mph - N/A   Scattered Clouds
11:55 AM 86.5 °F 92.1 °F 71.1 °F 60% 29.91 in 10.0 mi South 5.8 mph - N/A   Scattered Clouds
12:15 PM 88.2 °F 94.1 °F 71.1 °F 57% 29.90 in 10.0 mi South 6.9 mph - N/A   Clear
12:35 PM 88.3 °F 93.2 °F 70.0 °F 54% 29.89 in 10.0 mi Calm Calm - N/A   Clear
12:55 PM 88.5 °F 93.1 °F 69.3 °F 53% 29.88 in 10.0 mi SSE 5.8 mph - N/A   Scattered Clouds
1:15 PM 90.7 °F 95.9 °F 69.6 °F 50% 29.87 in 10.0 mi SSE 5.8 mph - N/A   Scattered Clouds
1:35 PM 90.7 °F 95.4 °F 69.1 °F 49% 29.86 in 10.0 mi South 8.1 mph - N/A   Clear
1:55 PM 91.2 °F 96.0 °F 69.1 °F 48% 29.85 in 10.0 mi SW 5.8 mph - N/A   Clear
2:15 PM 90.7 °F 95.9 °F 69.6 °F 50% 29.84 in 10.0 mi South 3.5 mph - N/A   Clear
2:35 PM 91.8 °F 97.5 °F 70.2 °F 49% 29.83 in 10.0 mi South 4.6 mph - N/A   Clear
2:55 PM 92.8 °F 98.1 °F 69.4 °F 46% 29.83 in 10.0 mi South 9.2 mph - N/A   Clear
3:15 PM 92.1 °F 97.7 °F 69.8 °F 48% 29.83 in 10.0 mi SE 4.6 mph - N/A   Scattered Clouds
3:35 PM 91.8 °F 97.0 °F 69.8 °F 48% 29.83 in 10.0 mi South 5.8 mph - N/A   Scattered Clouds
3:55 PM 92.1 °F 97.7 °F 70.0 °F 48% 29.83 in 10.0 mi South 8.1 mph 16.1 mph N/A   Scattered Clouds
4:15 PM 92.1 °F 96.7 °F 68.4 °F 46% 29.83 in 10.0 mi South 9.2 mph - N/A   Clear
4:35 PM 93.0 °F 98.4 °F 69.3 °F 46% 29.82 in 10.0 mi SSE 6.9 mph - N/A   Scattered Clouds
4:55 PM 94.1 °F 100.0 °F 69.8 °F 45% 29.82 in 10.0 mi SSE 6.9 mph - N/A   Scattered Clouds
5:15 PM 92.5 °F 99.6 °F 71.6 °F 50% 29.81 in 10.0 mi South 16.1 mph - N/A   Scattered Clouds
5:35 PM 91.8 °F 102.1 °F 74.7 °F 57% 29.80 in 10.0 mi South 16.1 mph 21.9 mph N/A   Clear
5:55 PM 88.9 °F 96.6 °F 73.0 °F 59% 29.80 in 10.0 mi South 12.7 mph 21.9 mph N/A   Clear
6:15 PM 88.9 °F 98.1 °F 74.5 °F 62% 29.80 in 10.0 mi South 15.0 mph 18.4 mph N/A   Clear
6:35 PM 87.8 °F 98.6 °F 75.9 °F 68% 29.80 in 10.0 mi SSE 15.0 mph - N/A   Clear
6:55 PM 86.5 °F 96.9 °F 76.1 °F 71% 29.81 in 10.0 mi South 12.7 mph 18.4 mph N/A   Clear
7:15 PM 85.1 °F 94.5 °F 76.1 °F 74% 29.81 in 10.0 mi South 9.2 mph - N/A   Clear
7:35 PM 84.4 °F 93.1 °F 75.7 °F 75% 29.82 in 10.0 mi South 8.1 mph - N/A   Clear
7:55 PM 84.2 °F 93.0 °F 75.9 °F 76% 29.81 in 10.0 mi SSE 8.1 mph - N/A   Clear
8:15 PM 83.8 °F 92.5 °F 76.1 °F 77% 29.81 in 10.0 mi SSE 9.2 mph - N/A   Clear
8:35 PM 83.3 °F 89.9 °F 73.9 °F 73% 29.80 in 10.0 mi SSE 6.9 mph - N/A   Clear
8:55 PM 82.2 °F 87.8 °F 73.2 °F 74% 29.80 in 10.0 mi SSE 5.8 mph - N/A   Clear
9:15 PM 81.7 °F 86.9 °F 73.0 °F 75% 29.81 in 10.0 mi SSE 4.6 mph - N/A   Clear
9:35 PM 80.8 °F 85.6 °F 73.4 °F 78% 29.83 in 10.0 mi SSE 4.6 mph - N/A   Clear
9:55 PM 80.6 °F 85.9 °F 74.5 °F 82% 29.83 in 10.0 mi SSE 4.6 mph - N/A   Clear
10:15 PM 80.6 °F 86.2 °F 75.4 °F 84% 29.83 in 10.0 mi SSE 6.9 mph - N/A   Clear
10:35 PM 81.0 °F 87.3 °F 76.1 °F 85% 29.83 in 10.0 mi SSE 9.2 mph - N/A   Clear
10:55 PM 80.8 °F 87.1 °F 76.1 °F 86% 29.84 in 10.0 mi SSE 5.8 mph - N/A   Clear
11:15 PM 80.2 °F 85.8 °F 76.1 °F 87% 29.86 in 10.0 mi South 6.9 mph - N/A   Clear
11:35 PM 80.2 °F 85.8 °F 76.1 °F 87% 29.86 in 10.0 mi SSE 6.9 mph - N/A   Clear
11:55 PM 79.9 °F - 76.1 °F 88% 29.86 in 10.0 mi South 4.6 mph - N/A   Clear